Paganella, Italy

4:06 AM CEST on April 28, 2017 (GMT +0200)
Paganella

Weather History for LIVP - May, 2013

Change the Weather History Date:

Friday, May 10, 2013

  Actual Average Record
Temperature  
Mean Temperature 36 °F -  
Max Temperature 40 °F 47 °F 57 °F (2007)
Min Temperature 33 °F 35 °F 26 °F (2004)
Degree Days  
Heating Degree Days 28    
Moisture  
Dew Point 37 °F    
Average Humidity 96    
Maximum Humidity 100    
Minimum Humidity 80    
Precipitation  
Precipitation 0.31 in 0.10 in - ()
Sea Level Pressure  
Sea Level Pressure 29.99 in    
Wind  
Wind Speed 10 mph ()    
Max Wind Speed 26 mph    
Max Gust Speed 38 mph    
Visibility 1.8 miles    
Events Fog , Rain    
Averages and records for this station are not official NWS values.
T = Trace of Precipitation, MM = Missing Value Source: Averaged Metar Reports

Daily Weather History Graph

Daily Weather History Graph

Search for Another Location

Airport or City:

Trip Planner

Search our weather history database for the weather conditions in past years. The results will help you decide how hot, cold, wet, or windy it might be!

Date:

Astronomy

May. 10, 2013 Rise Set
Actual Time 5:49 AM CEST 8:35 PM CEST
Civil Twilight 5:15 AM CEST 9:10 PM CEST
Nautical Twilight 4:31 AM CEST 9:54 PM CEST
Astronomical Twilight 3:40 AM CEST 10:46 PM CEST
Moon 6:02 AM CEST (5/10) 9:11 PM CEST (5/10)
Length of Visible Light 15h 55m
Length of Day
14h 46m
New Moon, 0% of the Moon is Illuminated
May 10
New Moon
May 18
First Quarter
May 25
Full
May 31
Last Quarter
Jun 8
New

Hourly Weather History & Observations

Time (CEST) Temp. Windchill Dew Point Humidity Pressure Visibility Wind Dir Wind Speed Gust Speed Precip Events Conditions
12:55 AM 41.0 °F 33.5 °F 39.2 °F 93% 30.09 in 6.2 mi SSE 13.8 mph - N/A   Partly Cloudy
1:55 AM 41.0 °F 33.9 °F 37.4 °F 87% 30.06 in 6.2 mi SSE 12.7 mph - N/A   Partly Cloudy
2:00 AM 41 °F - 37 °F 80%  in 12 mi SSE 12.7 mph - -   Scattered Clouds
2:55 AM 41.0 °F 35.8 °F 37.4 °F 87% 30.04 in 0.6 mi SSE 8.1 mph - N/A Fog Fog
3:55 AM 41.0 °F 34.7 °F 39.2 °F 93% 30.04 in 0.6 mi South 10.4 mph - N/A Fog Fog
4:55 AM 39.2 °F 33.0 °F 37.4 °F 93% 30.01 in 0.6 mi SSE 9.2 mph - N/A   Unknown
5:00 AM 39 °F - 37 °F 91%  in 1 mi SSE 9.2 mph - - Fog Heavy Fog
5:55 AM 39.2 °F 32.5 °F 37.4 °F 93% 30.01 in 0.3 mi SSE 10.4 mph - N/A Fog Fog
6:55 AM 39.2 °F 33.0 °F 39.2 °F 100% 30.01 in 0.1 mi South 9.2 mph - N/A Fog Fog
7:55 AM 39.2 °F 32.5 °F 39.2 °F 100% 30.01 in 0.0 mi SSE 10.4 mph - N/A Fog , Rain Light Rain
8:00 AM 39 °F - 39 °F 98%  in 0 mi SSE 10.4 mph - - Rain Light Rain
8:55 AM 37.4 °F 29.8 °F 37.4 °F 100% 29.98 in 0.1 mi SSE 11.5 mph - N/A Fog , Rain Light Rain
9:55 AM 37.4 °F 28.9 °F 35.6 °F 93% 29.98 in 0.0 mi SSE 13.8 mph - N/A Fog , Rain Light Rain
10:55 AM 37.4 °F 30.3 °F 37.4 °F 100% 29.98 in 0.0 mi SSE 10.4 mph - N/A Fog , Rain Light Rain
11:00 AM 37 °F - 37 °F 100%  in 0 mi SSE 10.4 mph - - Rain Light Rain
11:55 AM 37.4 °F 33.8 °F 37.4 °F 100% 29.98 in 0.0 mi South 4.6 mph - N/A Fog , Rain Light Rain
12:55 PM 39.2 °F 33.0 °F 39.2 °F 100% 30.01 in 0.0 mi SSE 9.2 mph - N/A Fog , Rain Light Rain
1:55 PM 39.2 °F 35.0 °F 39.2 °F 100% 29.98 in 0.0 mi SSE 5.8 mph - N/A Fog , Rain Light Rain
2:00 PM 39 °F - 39 °F 100%  in 0 mi SSE 5.8 mph - - Rain Light Rain
2:55 PM 39.2 °F 33.6 °F 39.2 °F 100% 29.98 in 0.0 mi SSE 8.1 mph - N/A Fog , Rain Light Rain
3:55 PM 39.2 °F 33.0 °F 39.2 °F 100% 29.98 in 0.0 mi SSE 9.2 mph - N/A Fog , Rain Light Rain
4:55 PM 39.2 °F 34.2 °F 39.2 °F 100% 29.95 in 0.0 mi SSE 6.9 mph - N/A Fog , Rain Light Rain
5:00 PM 39 °F - 39 °F 99%  in 0 mi SSE 6.9 mph - - Rain Light Rain
5:55 PM 39.2 °F - 39.2 °F 100% 29.98 in 0.0 mi Variable 1.2 mph - N/A Fog , Rain Light Rain
6:55 PM 37.4 °F 31.4 °F 37.4 °F 100% 29.95 in 0.0 mi North 8.1 mph - N/A Fog , Rain Light Rain
7:55 PM 35.6 °F 25.5 °F 35.6 °F 100% 29.95 in 0.2 mi North 17.3 mph 28.8 mph N/A Fog , Rain Light Rain
8:00 PM 35 °F - 35 °F 99%  in 0 mi North 17.3 mph - - Rain Light Rain
8:55 PM 33.8 °F 22.2 °F 33.8 °F 100% 29.95 in 0.6 mi North 20.7 mph 32.2 mph N/A Fog , Rain Light Rain
9:55 PM 33.8 °F 20.8 °F 32.0 °F 93% 29.92 in 0.6 mi North 26.5 mph - N/A Fog , Rain Light Rain
10:55 PM 33.8 °F 21.0 °F 32.0 °F 93% 29.95 in 6.2 mi North 25.3 mph 38.0 mph N/A   Scattered Clouds
11:00 PM 34 °F - 31 °F 86%  in 16 mi North 25.3 mph - - Fog Light Fog
11:55 PM 33.8 °F 21.3 °F 30.2 °F 87% 29.92 in 6.2 mi North 24.2 mph 35.7 mph N/A   Partly Cloudy